Weather History for KMPV - April, 2013

Change the Weather History Date:

Sunday, April 21, 2013

  Actual Average Record
Temperature  
Mean Temperature 34 °F 45 °F  
Max Temperature 43 °F 56 °F 81 °F (1977)
Min Temperature 24 °F 34 °F 19 °F (1981)
Degree Days  
Heating Degree Days 31 20  
Month to date heating degree days 560 515  
Since 1 July heating degree days 7173 7540  
Cooling Degree Days 0 0  
Month to date cooling degree days 0 0  
Year to date cooling degree days 0 0  
Moisture  
Dew Point 14 °F    
Average Humidity 45    
Maximum Humidity 63    
Minimum Humidity 27    
Precipitation  
Precipitation T in 0.09 in 0.65 in (1958)
Month to date precipitation 1.93 1.83  
Year to date precipitation 5.06 8.71  
Sea Level Pressure  
Sea Level Pressure 30.59 in    
Wind  
Wind Speed 7 mph (NW)    
Max Wind Speed 17 mph    
Max Gust Speed 25 mph    
Visibility 10 miles    
Events      
T = Trace of Precipitation, MM = Missing Value Source: NWS Daily Summary

Daily Weather History Graph

Daily Weather History Graph

Search for Another Location

Airport or City:

Trip Planner

Search our weather history database for the weather conditions in past years. The results will help you decide how hot, cold, wet, or windy it might be!

Date:

Astronomy

Apr. 21, 2013 Rise Set
Actual Time 5:56 AM EDT 7:42 PM EDT
Civil Twilight 5:25 AM EDT 8:13 PM EDT
Nautical Twilight 4:48 AM EDT 8:50 PM EDT
Astronomical Twilight 4:07 AM EDT 9:31 PM EDT
Moon 3:15 PM EDT (4/21) 3:26 AM EDT (4/21)
Length of Visible Light 14h 47m
Length of Day
13h 45m
Waxing Gibbous, 79% of the Moon is Illuminated
Apr 21
Waxing Gibbous
Apr 25
Full
May 2
Last Quarter
May 9
New
May 18
First Quarter

Hourly Weather History & Observations

Time (EDT) Temp. Windchill Dew Point Humidity Pressure Visibility Wind Dir Wind Speed Gust Speed Precip Events Conditions
12:51 AM 30.9 °F 21.7 °F 14.0 °F 50% 30.32 in 10.0 mi WNW 11.5 mph 17.3 mph N/A   Overcast
1:51 AM 30.9 °F 23.5 °F 14.0 °F 50% 30.34 in 10.0 mi West 8.1 mph - N/A   Overcast
2:51 AM 30.0 °F 25.2 °F 17.1 °F 59% 30.36 in 10.0 mi Variable 4.6 mph - N/A   Overcast
3:51 AM 28.0 °F 16.5 °F 17.1 °F 63% 30.40 in 10.0 mi NW 15.0 mph 25.3 mph 0.00 in   Overcast
4:51 AM 28.0 °F 18.1 °F 15.1 °F 58% 30.44 in 10.0 mi WNW 11.5 mph 19.6 mph N/A   Mostly Cloudy
5:51 AM 27.0 °F 17.3 °F 16.0 °F 63% 30.48 in 10.0 mi NNW 10.4 mph 18.4 mph N/A   Overcast
6:51 AM 27.0 °F 17.3 °F 14.0 °F 58% 30.53 in 10.0 mi NNW 10.4 mph 19.6 mph 0.00 in   Overcast
7:51 AM 28.0 °F 18.6 °F 14.0 °F 56% 30.57 in 10.0 mi NW 10.4 mph 17.3 mph N/A   Scattered Clouds
8:51 AM 28.9 °F 18.2 °F 14.0 °F 54% 30.59 in 10.0 mi NNW 13.8 mph 20.7 mph N/A   Clear
9:51 AM 32.0 °F 23.0 °F 14.0 °F 48% 30.62 in 10.0 mi WNW 11.5 mph 18.4 mph N/A   Scattered Clouds
10:51 AM 33.1 °F 26.9 °F 15.1 °F 48% 30.64 in 10.0 mi Variable 6.9 mph 18.4 mph N/A   Clear
11:51 AM 36.0 °F 29.0 °F 14.0 °F 41% 30.64 in 10.0 mi WNW 9.2 mph 19.6 mph N/A   Clear
12:51 PM 37.9 °F 32.7 °F 15.1 °F 39% 30.64 in 10.0 mi NNW 6.9 mph - N/A   Clear
1:51 PM 39.0 °F 33.4 °F 14.0 °F 36% 30.64 in 10.0 mi NW 8.1 mph 17.3 mph N/A   Clear
2:51 PM 41.0 °F 35.8 °F 12.9 °F 32% 30.65 in 10.0 mi West 8.1 mph 21.9 mph N/A   Clear
3:51 PM 42.1 °F 35.2 °F 12.9 °F 31% 30.65 in 10.0 mi WNW 12.7 mph - N/A   Clear
4:51 PM 42.1 °F 36.1 °F 10.0 °F 27% 30.66 in 10.0 mi WNW 10.4 mph 17.3 mph N/A   Clear
5:51 PM 42.1 °F 37.1 °F 10.9 °F 28% 30.66 in 10.0 mi WNW 8.1 mph - N/A   Clear
6:51 PM 41.0 °F 35.2 °F 10.9 °F 29% 30.67 in 10.0 mi NW 9.2 mph - N/A   Clear
7:51 PM 37.0 °F 34.5 °F 12.9 °F 37% 30.70 in 10.0 mi NNE 3.5 mph - N/A   Clear
8:51 PM 28.9 °F - 17.1 °F 61% 30.74 in 10.0 mi Calm Calm - N/A   Clear
9:51 PM 28.9 °F - 16.0 °F 58% 30.74 in 10.0 mi Calm Calm - N/A   Clear
10:51 PM 28.0 °F - 16.0 °F 61% 30.75 in 10.0 mi Calm Calm - N/A   Clear
11:51 PM 26.1 °F - 16.0 °F 66% 30.75 in 10.0 mi Calm Calm - N/A   Clear